FW6313 Weather Reports


time (UTC)temp
F
wind
direction
speed
knots
gust
knots
rain 1hr
in
rain 24hr
in
rain mn
in
humidity
%
barometer
mb
20260906221041 84 240 0.0 5.2 0.00 0.00 0.00 23 1002.0
20260906220541 84 292 0.0 5.2 0.00 0.00 0.00 24 1002.1
20260906220043 84 213 0.0 7.8 0.00 0.00 0.00 24 1002.1
20260906215540 84 298 0.9 7.8 0.00 0.00 0.00 25 1002.1
20260906215039 84 257 0.0 7.0 0.00 0.00 0.00 23 1002.2
20260906214539 85 11 1.7 6.1 0.00 0.00 0.00 21 1002.4
20260906214041 85 205 0.9 6.1 0.00 0.00 0.00 22 1002.3
20260906213537 85 215 0.0 4.3 0.00 0.00 0.00 24 1002.4
20260906213037 84 281 0.9 4.3 0.00 0.00 0.00 24 1002.5
20260906212536 84 230 0.0 1.7 0.00 0.00 0.00 24 1002.6
20260906212036 84 192 0.0 0.9 0.00 0.00 0.00 22 1002.6
20260906211534 85 192 0.0 5.2 0.00 0.00 0.00 22 1002.8
20260906211036 86 192 0.0 5.2 0.00 0.00 0.00 23 1002.9
20260906210535 86 221 0.0 3.5 0.00 0.00 0.00 22 1003.1
20260906210035 86 163 0.9 5.2 0.00 0.00 0.00 21 1003.0
20260906205532 85 189 0.9 5.2 0.00 0.00 0.00 24 1003.1
20260906205030 85 257 0.0 3.5 0.00 0.00 0.00 24 1003.1
20260906204530 85 237 0.0 3.5 0.00 0.00 0.00 23 1003.3
20260906204028 85 207 0.0 3.5 0.00 0.00 0.00 23 1003.3
20260906203528 85 338 0.0 3.5 0.00 0.00 0.00 22 1003.4
20260906203028 85 262 0.0 3.5 0.00 0.00 0.00 23 1003.4
20260906202527 85 176 0.0 1.7 0.00 0.00 0.00 24 1003.5
20260906202026 84 171 0.0 4.3 0.00 0.00 0.00 25 1003.6
20260906201525 83 171 0.0 4.3 0.00 0.00 0.00 26 1003.8
20260906201024 83 171 0.0 2.6 0.00 0.00 0.00 24 1003.9
20260906200525 84 167 0.0 2.6 0.00 0.00 0.00 25 1003.8
20260906200024 84 200 0.0 4.3 0.00 0.00 0.00 24 1003.9
20260906195523 84 167 0.0 4.3 0.00 0.00 0.00 23 1004.1
20260906195023 85 196 0.0 3.5 0.00 0.00 0.00 24 1004.0
20260906194522 84 171 0.0 4.3 0.00 0.00 0.00 23 1004.0
20260906194019 84 197 0.0 4.3 0.00 0.00 0.00 24 1004.1
20260906193519 83 180 0.0 3.5 0.00 0.00 0.00 24 1004.2
20260906193019 83 214 0.0 1.7 0.00 0.00 0.00 24 1004.2
20260906192518 84 211 0.0 1.7 0.00 0.00 0.00 23 1004.2
20260906192018 83 239 0.0 4.3 0.00 0.00 0.00 24 1004.2
20260906191517 83 281 0.0 4.3 0.00 0.00 0.00 24 1004.4
20260906191015 82 282 0.0 4.3 0.00 0.00 0.00 26 1004.5
20260906190515 82 270 0.0 3.5 0.00 0.00 0.00 24 1004.6
20260906190012 81 202 0.0 5.2 0.00 0.00 0.00 25 1004.7
20260906185511 80 325 0.0 6.1 0.00 0.00 0.00 24 1004.9
20260906185009 79 275 2.6 6.1 0.00 0.00 0.00 24 1005.0
20260906184520 79 19 0.0 6.1 0.00 0.00 0.00 24 1005.2
20260906184007 79 19 0.0 7.8 0.00 0.00 0.00 24 1005.2
20260906183509 79 21 2.6 7.8 0.00 0.00 0.00 23 1005.3
20260906183005 79 297 0.0 6.1 0.00 0.00 0.00 25 1005.4
20260906182503 78 275 0.0 6.1 0.00 0.00 0.00 26 1005.6
20260906182003 78 36 2.6 6.1 0.00 0.00 0.00 23 1005.6
20260906181502 78 273 1.7 7.8 0.00 0.00 0.00 24 1005.7
20260906181004 77 24 1.7 7.8 0.00 0.00 0.00 24 1005.8
20260906180600 77 26 2.6 7.8 0.00 0.00 0.00 25 1005.9
20260906180059 77 303 3.5 7.8 0.00 0.00 0.00 26 1006.1
20260906175558 77 306 1.7 7.0 0.00 0.00 0.00 26 1006.1
20260906175101 77 5 1.7 7.0 0.00 0.00 0.00 24 1006.3
20260906174600 76 346 0.0 6.1 0.00 0.00 0.00 25 1006.3
20260906174055 76 12 0.0 6.1 0.00 0.00 0.00 23 1006.3
20260906173552 75 36 0.0 6.1 0.00 0.00 0.00 25 1006.4
20260906173057 75 32 0.9 6.1 0.00 0.00 0.00 25 1006.5
20260906172550 74 302 0.9 5.2 0.00 0.00 0.00 29 1006.7
20260906172048 74 18 3.5 5.2 0.00 0.00 0.00 27 1006.7
20260906171549 73 49 0.0 4.3 0.00 0.00 0.00 31 1006.7
20260906171044 74 49 1.7 4.3 0.00 0.00 0.00 34 1006.7
20260906170549 74 49 0.0 3.5 0.00 0.00 0.00 35 1006.8
20260906170046 73 49 0.0 0.9 0.00 0.00 0.00 36 1006.9
20260906165542 73 49 0.0 0.9 0.00 0.00 0.00 38 1006.9
20260906165041 73 49 0.0 0.9 0.00 0.00 0.00 39 1007.0
20260906164541 73 49 0.0 0.0 0.00 0.00 0.00 43 1007.0
20260906164041 73 49 0.0 0.0 0.00 0.00 0.00 42 1007.1
20260906163538 72 49 0.0 0.0 0.00 0.00 0.00 46 1007.2
20260906163037 71 49 0.0 0.9 0.00 0.00 0.00 44 1007.2
20260906162535 70 49 0.0 0.9 0.00 0.00 0.00 45 1007.3
20260906162034 69 49 0.0 0.0 0.00 0.00 0.00 47 1007.3
20260906161535 68 49 0.0 0.0 0.00 0.00 0.00 47 1007.4
20260906161031 67 49 0.0 0.0 0.00 0.00 0.00 48 1007.4
20260906160529 66 49 0.0 0.0 0.00 0.00 0.00 51 1007.3
20260906160033 65 49 0.0 0.0 0.00 0.00 0.00 50 1007.3
20260906155530 64 49 0.0 0.0 0.00 0.00 0.00 51 1007.4
20260906155026 63 49 0.0 0.0 0.00 0.00 0.00 53 1007.3
20260906154526 63 49 0.0 0.0 0.00 0.00 0.00 51 1007.4
20260906154026 63 49 0.0 0.0 0.00 0.00 0.00 55 1007.5
20260906153525 62 49 0.0 0.9 0.00 0.00 0.00 52 1007.4
20260906153029 61 49 0.0 0.0 0.00 0.00 0.00 59 1007.4
20260906152523 60 49 0.0 0.0 0.00 0.00 0.00 57 1007.5
20260906152024 58 49 0.0 0.0 0.00 0.00 0.00 56 1007.5
20260906151522 58 49 0.0 0.0 0.00 0.00 0.00 57 1007.6
20260906151023 58 49 0.0 0.0 0.00 0.00 0.00 58 1007.6
20260906150520 58 49 0.0 0.0 0.00 0.00 0.00 58 1007.7
20260906150027 57 49 0.0 1.7 0.00 0.00 0.00 56 1007.7
20260906145525 57 49 0.0 2.6 0.00 0.00 0.00 57 1007.6
20260906145025 57 49 0.0 2.6 0.00 0.00 0.00 54 1007.6
20260906144518 57 49 0.0 0.0 0.00 0.00 0.00 53 1007.6
20260906144018 57 49 0.0 0.9 0.00 0.00 0.00 52 1007.5
20260906143518 57 49 0.0 0.0 0.00 0.00 0.00 52 1007.6
20260906143018 56 49 0.0 0.0 0.00 0.00 0.00 53 1007.6
20260906142515 56 49 0.0 0.0 0.00 0.00 0.00 55 1007.7
20260906142015 56 49 0.0 0.0 0.00 0.00 0.00 52 1007.7
20260906141513 56 49 0.0 0.0 0.00 0.00 0.00 52 1007.7
20260906141012 56 49 0.0 0.0 0.00 0.00 0.00 54 1007.7
20260906140512 55 49 0.0 0.0 0.00 0.00 0.00 53 1007.6
20260906140034 55 49 0.0 0.0 0.00 0.00 0.00 54 1007.7
20260906135511 55 49 0.0 0.0 0.00 0.00 0.00 54 1007.6
20260906135011 55 49 0.0 0.0 0.00 0.00 0.00 54 1007.6
20260906134510 55 49 0.0 0.0 0.00 0.00 0.00 54 1007.7
20260906134010 55 49 0.0 0.0 0.00 0.00 0.00 54 1007.5
20260906133508 54 49 0.0 0.0 0.00 0.00 0.00 54 1007.5
20260906133010 55 49 0.0 0.0 0.00 0.00 0.00 56 1007.5
20260906132509 55 49 0.0 0.0 0.00 0.00 0.00 55 1007.4
20260906132007 55 49 0.0 0.0 0.00 0.00 0.00 55 1007.3
20260906131506 55 49 0.0 0.0 0.00 0.00 0.00 54 1007.2
20260906131005 55 49 0.0 0.0 0.00 0.00 0.00 54 1007.1
20260906130504 55 49 0.0 0.0 0.00 0.00 0.00 53 1007.0
20260906130004 55 49 0.0 0.0 0.00 0.00 0.00 53 1007.1
20260906125501 55 49 0.0 0.0 0.00 0.00 0.00 52 1007.0
20260906125100 56 49 0.0 0.0 0.00 0.00 0.00 52 1006.9
20260906124559 56 49 0.0 0.0 0.00 0.00 0.00 52 1007.0
20260906124059 56 49 0.0 0.0 0.00 0.00 0.00 51 1006.8
20260906123558 56 49 0.0 0.0 0.00 0.00 0.00 51 1006.8
20260906123058 56 49 0.0 0.0 0.00 0.00 0.00 50 1006.9
20260906122601 56 49 0.0 0.0 0.00 0.00 0.00 51 1006.9
20260906122059 56 49 0.0 0.0 0.00 0.00 0.00 51 1007.0
20260906121558 56 49 0.0 0.0 0.00 0.00 0.00 51 1007.0
20260906121057 56 49 0.0 0.9 0.00 0.00 0.00 50 1007.0
20260906120558 56 49 0.0 0.0 0.00 0.00 0.00 50 1006.9
20260906120055 56 49 0.0 0.0 0.00 0.00 0.00 50 1006.8
20260906115555 56 49 0.0 0.0 0.00 0.00 0.00 51 1006.9
20260906115053 57 49 0.0 0.0 0.00 0.00 0.00 50 1006.9
20260906114553 57 49 0.0 0.0 0.00 0.00 0.00 49 1006.9
20260906114055 57 49 0.0 0.0 0.00 0.00 0.00 50 1006.8
20260906113552 57 49 0.0 0.0 0.00 0.00 0.00 49 1006.8
20260906113058 57 49 0.0 0.0 0.00 0.00 0.00 49 1006.7
20260906112551 57 49 0.0 0.0 0.00 0.00 0.00 48 1006.7
20260906112052 57 49 0.0 0.0 0.00 0.00 0.00 48 1006.7
20260906111555 57 49 0.0 0.0 0.00 0.00 0.00 50 1006.7
20260906111056 57 49 0.0 0.0 0.00 0.00 0.00 48 1006.7
20260906110551 57 49 0.0 0.0 0.00 0.00 0.00 48 1006.7
20260906110058 57 49 0.0 0.0 0.00 0.00 0.00 49 1006.9
20260906105550 57 49 0.0 0.0 0.00 0.00 0.00 48 1006.8
20260906105049 57 49 0.0 0.0 0.00 0.00 0.00 49 1006.7
20260906104549 57 49 0.0 0.0 0.00 0.00 0.00 49 1006.7
20260906104049 57 49 0.0 0.0 0.00 0.00 0.00 49 1006.8
20260906103549 57 49 0.0 0.0 0.00 0.00 0.00 48 1006.7
20260906103047 58 49 0.0 0.0 0.00 0.00 0.00 48 1006.7
20260906102547 58 49 0.0 0.0 0.00 0.00 0.00 47 1006.6
20260906102046 58 49 0.0 0.0 0.00 0.00 0.00 47 1006.6
20260906101546 58 49 0.0 0.0 0.00 0.00 0.00 47 1006.5
20260906101045 58 49 0.0 0.0 0.00 0.00 0.00 48 1006.5
20260906100545 58 49 0.0 0.0 0.00 0.00 0.00 47 1006.4
20260906100048 58 49 0.0 0.0 0.00 0.00 0.00 48 1006.4
20260906095544 58 49 0.0 0.0 0.00 0.00 0.00 47 1006.3
20260906095044 58 49 0.0 0.0 0.00 0.00 0.00 48 1006.1
20260906094556 58 49 0.0 0.0 0.00 0.00 0.00 48 1006.1
20260906094042 58 49 0.0 0.0 0.00 0.00 0.00 48 1006.0
20260906093542 58 49 0.0 0.0 0.00 0.00 0.00 48 1006.1
20260906093054 59 49 0.0 0.0 0.00 0.00 0.00 48 1006.1
20260906092540 59 49 0.0 0.0 0.00 0.00 0.00 47 1006.0
20260906092040 59 49 0.0 0.0 0.00 0.00 0.00 46 1006.0
20260906091539 59 49 0.0 0.0 0.00 0.00 0.00 46 1006.0
20260906091038 59 49 0.0 0.0 0.00 0.00 0.00 46 1006.1
20260906090539 59 49 0.0 0.0 0.00 0.00 0.00 46 1006.1
20260906090105 60 49 0.0 0.0 0.00 0.00 0.00 45 1006.0
20260906085540 60 49 0.0 0.0 0.00 0.00 0.00 45 1006.1
20260906085039 60 49 0.0 0.0 0.00 0.00 0.00 45 1006.1
20260906084536 60 49 0.0 0.0 0.00 0.00 0.00 45 1006.1
20260906084036 60 49 0.0 0.0 0.00 0.00 0.00 44 1005.9
20260906083534 60 49 0.0 0.0 0.00 0.00 0.00 43 1006.0
20260906083040 60 49 0.0 0.0 0.00 0.00 0.00 43 1006.0
20260906082533 61 49 0.0 0.0 0.00 0.00 0.00 43 1005.9
20260906082032 61 49 0.0 0.0 0.00 0.00 0.00 43 1006.0
20260906081533 61 49 0.0 0.0 0.00 0.00 0.00 43 1006.0
20260906081031 61 49 0.0 0.0 0.00 0.00 0.00 42 1006.0
20260906080531 61 49 0.0 0.0 0.00 0.00 0.00 43 1006.0
20260906080029 61 49 0.0 0.0 0.00 0.00 0.00 42 1006.0
20260906075532 61 49 0.0 0.0 0.00 0.00 0.00 42 1006.0
20260906075029 62 49 0.0 0.0 0.00 0.00 0.00 42 1005.9
20260906074536 62 49 0.0 0.0 0.00 0.00 0.00 42 1006.0
20260906074028 62 49 0.0 0.0 0.00 0.00 0.00 42 1006.0
20260906073528 62 49 0.0 0.0 0.00 0.00 0.00 42 1006.1
20260906073026 62 49 0.0 2.6 0.00 0.00 0.00 41 1006.1
20260906072526 62 49 0.0 3.5 0.00 0.00 0.00 41 1006.2
20260906072026 62 49 1.7 3.5 0.00 0.00 0.00 41 1006.2
20260906071524 63 49 0.0 0.0 0.00 0.00 0.00 41 1006.2
20260906071024 63 49 0.0 0.0 0.00 0.00 0.00 42 1006.1
20260906070525 63 49 0.0 0.0 0.00 0.00 0.00 41 1006.2
20260906070023 63 49 0.0 0.0 0.00 0.00 0.00 42 1006.2
20260906065527 63 49 0.0 0.0 0.00 0.00 0.00 41 1006.2
20260906065026 63 49 0.0 0.0 0.00 0.00 0.00 40 1006.1
20260906064522 63 49 0.0 0.0 0.00 0.00 0.00 41 1006.1
20260906064022 63 49 0.0 0.0 0.00 0.00 0.00 41 1006.1
20260906063525 63 49 0.0 0.0 0.00 0.00 0.00 40 1006.1
20260906063020 63 49 0.0 0.0 0.00 0.00 0.00 40 1006.1
20260906062519 63 49 0.0 0.0 0.00 0.00 0.00 40 1006.0
20260906062019 63 49 0.0 0.0 0.00 0.00 0.00 40 1006.0
20260906061520 63 49 0.0 0.0 0.00 0.00 0.00 39 1006.1
20260906061018 64 49 0.0 0.0 0.00 0.00 0.00 39 1006.1
20260906060518 64 49 0.0 0.0 0.00 0.00 0.00 39 1006.1
20260906060017 64 49 0.0 0.0 0.00 0.00 0.00 39 1006.0
20260906055517 64 49 0.0 0.0 0.00 0.00 0.00 39 1005.9
20260906055017 64 49 0.0 0.0 0.00 0.00 0.00 39 1006.0
20260906054517 65 49 0.0 0.0 0.00 0.00 0.00 38 1005.9
20260906054017 65 49 0.0 0.0 0.00 0.00 0.00 38 1006.0
20260906053516 65 49 0.0 0.0 0.00 0.00 0.00 37 1005.9
20260906053019 65 49 0.0 0.0 0.00 0.00 0.00 37 1005.9
20260906052517 65 49 0.0 0.0 0.00 0.00 0.00 37 1006.1
20260906052017 66 49 0.0 0.9 0.00 0.00 0.00 37 1006.0
20260906051519 66 49 0.0 0.0 0.00 0.00 0.00 36 1005.9
20260906051016 66 49 0.0 0.0 0.00 0.00 0.00 36 1006.0
20260906050515 66 49 0.0 0.0 0.00 0.00 0.00 36 1006.0
20260906050015 66 49 0.0 0.0 0.00 0.00 0.00 36 1006.0
20260906045514 67 49 0.0 0.0 0.00 0.00 0.00 35 1006.0
20260906045015 67 49 0.0 0.0 0.00 0.00 0.00 35 1006.0
20260906044515 67 49 0.0 0.0 0.00 0.00 0.00 35 1006.0
20260906044015 67 49 0.0 0.0 0.00 0.00 0.00 35 1006.0
20260906043514 67 49 0.0 0.0 0.00 0.00 0.00 35 1006.0
20260906043016 67 49 0.0 0.0 0.00 0.00 0.00 34 1006.0
20260906042513 67 49 0.0 0.0 0.00 0.00 0.00 34 1006.0
20260906042014 67 49 0.0 0.0 0.00 0.00 0.00 34 1006.0
20260906041527 68 49 0.0 0.0 0.00 0.00 0.00 34 1005.9
20260906041013 68 49 0.0 0.0 0.00 0.00 0.00 34 1005.9
20260906040513 68 49 0.0 0.0 0.00 0.00 0.00 33 1006.0
20260906040013 68 49 0.0 0.0 0.00 0.00 0.00 34 1005.9
20260906035513 68 49 0.0 0.0 0.00 0.00 0.00 34 1006.0
20260906035013 68 49 0.0 0.0 0.00 0.00 0.00 34 1005.9
20260906034515 68 49 0.0 0.0 0.00 0.00 0.00 33 1005.9
20260906034014 69 49 0.0 0.0 0.00 0.00 0.00 33 1005.8
20260906033512 69 49 0.0 0.0 0.00 0.00 0.00 34 1005.8
20260906033012 69 49 0.0 0.0 0.00 0.00 0.00 34 1005.8
20260906032512 69 49 0.0 0.0 0.00 0.00 0.00 33 1005.7
20260906032012 69 49 0.0 0.0 0.00 0.00 0.00 33 1005.7
20260906031512 69 49 0.0 0.0 0.00 0.00 0.00 32 1005.6
20260906031012 69 49 0.0 0.0 0.00 0.00 0.00 32 1005.5
20260906030511 69 49 0.0 0.0 0.00 0.00 0.00 32 1005.5
20260906030011 69 49 0.0 2.6 0.00 0.00 0.00 32 1005.4
20260906025512 69 49 0.0 4.3 0.00 0.00 0.00 32 1005.3
20260906025011 69 49 1.7 4.3 0.00 0.00 0.00 32 1005.2
20260906024511 69 49 0.0 4.3 0.00 0.00 0.00 32 1005.1
20260906024011 70 49 0.0 4.3 0.00 0.00 0.00 32 1005.0
20260906023510 70 49 0.9 4.3 0.00 0.00 0.00 32 1005.0
20260906023009 70 46 1.7 3.5 0.00 0.00 0.00 32 1005.0
20260906022509 70 46 2.6 3.5 0.00 0.00 0.00 32 1004.9
20260906022009 70 46 0.9 4.3 0.00 0.00 0.00 31 1004.9
20260906021510 71 46 0.0 4.3 0.00 0.00 0.00 31 1004.8
20260906021009 71 46 1.7 5.2 0.00 0.00 0.00 31 1004.7
20260906020509 72 38 2.6 5.2 0.00 0.00 0.00 31 1004.6
20260906020010 72 43 0.9 5.2 0.00 0.00 0.00 30 1004.6
20260906015510 73 346 0.0 0.0 0.00 0.00 0.00 30 1004.6
20260906015008 73 346 0.0 0.0 0.00 0.00 0.00 29 1004.5
20260906014525 73 346 0.0 0.0 0.00 0.00 0.00 29 1004.5
20260906014008 73 346 0.0 0.0 0.00 0.00 0.00 28 1004.5
20260906013507 73 346 0.0 0.0 0.00 0.00 0.00 28 1004.4
20260906013008 74 346 0.0 0.0 0.00 0.00 0.00 28 1004.4
20260906012507 74 346 0.0 0.0 0.00 0.00 0.00 28 1004.4
20260906012007 74 346 0.0 0.0 0.00 0.00 0.00 28 1004.5
20260906011507 74 346 0.0 0.0 0.00 0.00 0.00 28 1004.5
20260906011008 74 346 0.0 0.0 0.00 0.00 0.00 28 1004.5
20260906010506 74 346 0.0 2.6 0.00 0.00 0.00 28 1004.4
20260906010022 74 346 0.0 4.3 0.00 0.00 0.00 28 1004.5
20260906005505 74 346 1.7 4.3 0.00 0.00 0.00 28 1004.5
20260906005009 74 346 0.0 3.5 0.00 0.00 0.00 28 1004.5
20260906004506 74 346 0.0 0.0 0.00 0.00 0.00 29 1004.5
20260906004006 74 346 0.0 5.2 0.00 0.00 0.00 29 1004.4
20260906003504 74 329 3.5 5.2 0.00 0.00 0.00 29 1004.4
20260906003004 74 34 0.9 6.1 0.00 0.00 0.00 29 1004.3
20260906002503 74 38 3.5 6.1 0.00 0.00 0.00 30 1004.4
20260906002006 74 34 2.6 7.0 0.00 0.00 0.00 29 1004.3
20260906001504 74 26 3.5 10.4 0.00 0.00 0.00 29 1004.3
20260906001003 74 33 4.3 10.4 0.00 0.00 0.00 29 1004.2
20260906000503 74 44 3.5 7.8 0.00 0.00 0.00 29 1004.1
20260906000003 75 22 3.5 7.8 0.00 0.00 0.00 30 1004.0
20260905235503 75 10 2.6 8.7 0.00 0.00 0.00 29 1004.0
20260905235003 75 16 3.5 8.7 0.00 0.00 0.00 29 1003.9
20260905234502 75 17 3.5 6.1 0.00 0.00 0.00 29 1003.9
20260905234002 75 49 0.9 7.0 0.00 0.00 0.00 30 1003.8
20260905233501 75 32 0.9 7.0 0.00 0.00 0.00 32 1003.8
20260905233000 75 13 0.9 7.0 0.00 0.00 0.00 30 1003.8
20260905232501 75 43 3.5 6.1 0.00 0.00 0.00 29 1003.8
20260905232002 76 42 3.5 7.8 0.00 0.00 0.00 29 1003.8
20260905231601 76 34 4.3 7.8 0.00 0.00 0.00 28 1003.8
20260905231100 77 26 3.5 7.0 0.00 0.00 0.00 30 1003.9
20260905230604 77 331 2.6 7.0 0.00 0.00 0.00 29 1003.8
20260905230116 78 5 3.5 9.6 0.00 0.00 0.00 28 1003.8
20260905225559 78 38 3.5 9.6 0.00 0.00 0.00 28 1003.8
20260905225059 79 22 0.0 7.0 0.00 0.00 0.00 28 1003.7
20260905224600 79 298 0.9 4.3 0.00 0.00 0.00 30 1003.7
20260905224058 78 296 0.0 1.7 0.00 0.00 0.00 30 1003.7
20260905223558 78 288 0.0 2.6 0.00 0.00 0.00 28 1003.8
20260905223058 78 290 0.0 5.2 0.00 0.00 0.00 30 1003.8
20260905222558 78 286 0.0 5.2 0.00 0.00 0.00 29 1003.8
20260905222056 78 5 0.0 6.1 0.00 0.00 0.00 29 1003.9
20260905221557 79 360 2.6 6.1 0.00 0.00 0.00 28 1003.9